Regional Weather Roundup
Issued by NWS

Home | Current Version | Previous Version | Graphics & Text | Print | Product List | Glossary On
Versions: 1 2 3 4 5 6 7 8 9 10 11 12 13 14 15 16 17 18 19 20 21 22 23 24 25 26 27 28 29 30 31 32 33 34 35 36 37 38 39 40 41 42 43 44 45 46 47 48 49 50
000
ASUS43 KMPX 190310
RWRMN
WEATHER ROUNDUP FOR MINNESOTA
NATIONAL WEATHER SERVICE TWIN CITIES/CHANHASSEN MN
900 PM CST THU DEC 18 2014


NOTE: "FAIR" INDICATES FEW OR NO CLOUDS BELOW 12,000 FEET WITH NO
SIGNIFICANT WEATHER AND/OR OBSTRUCTIONS TO VISIBILITY. N/A MEANS
CURRENT SKY AND/OR WEATHER CONDITIONS ARE NOT AVAILABLE.

MNZ060>063-068>070-190400-
   Twin Cities Metro

CITY           SKY/WX    TMP DP  RH WIND       PRES   REMARKS
TWIN CITIES    CLOUDY    21  14  74 S6        30.27F WCI  13
ST PAUL        CLOUDY    21  16  81 S5        30.28F WCI  15
CRYSTAL        CLOUDY    22  15  75 S7        30.25F WCI  13
BLAINE           N/A     23  18  80 S6        30.25F WCI  16
LAKEVILLE      CLOUDY    19  16  86 CALM      30.25F
EDEN PRAIRIE   CLOUDY    21  14  74 SE6       30.25F WCI  13
SOUTH ST PAUL  CLOUDY    22  17  79 CALM      30.27F
LAKE ELMO      CLOUDY    23  19  86 CALM      30.27S
$$
MNZ001>005-007-008-013>017-022>024-027-028-190400-
   Northwest Minnesota

CITY           SKY/WX    TMP DP  RH WIND       PRES   REMARKS
BEMIDJI        CLOUDY    17  14  87 SE7       30.17F WCI   8
HALLOCK        CLOUDY    19  18  93 S9        30.14F WCI   9
ROSEAU         MOCLDY    18  12  79 SE6       30.16F WCI   9
WARROAD        FAIR      12   9  85 SE6       30.17F WCI   3
THIEF RVR FALL CLOUDY    21  16  79 S7        30.16S WCI  13
CROOKSTON      CLOUDY    19  16  86 S10       30.17F WCI   8
FOSSTON        CLOUDY    18  16  93 SE7       30.16S WCI   8
DETROIT LAKES  MOCLDY    21  18  86 S12       30.17R WCI   9
MOORHEAD       CLOUDY    21  19  93 S12       30.17F WCI   9
PARK RAPIDS    CLOUDY    18  14  84 SE12      30.17S WCI   5
MAHNOMEN       CLOUDY    19  14  80 S7        30.16S WCI  10
$$
MNZ006-009>011-018-025>026-190400-
   North Central Minnesota

CITY           SKY/WX    TMP DP  RH WIND       PRES   REMARKS
BAUDETTE       CLOUDY    19  14  81 S6        30.18S WCI  11
FLAG ISLAND    CLOUDY    18  14  86 S12       30.17S WCI   5
INTL FALLS     CLOUDY    20  17  88 SE5       30.20F WCI  13
WASKISH        CLOUDY    18  16  93 CALM      30.19F
BIG FORK       CLOUDY    21  18  86 S8        30.20S WCI  12
LONGVILLE      CLOUDY    19  18  93 S7        30.20S WCI  10
GRAND RAPIDS   CLOUDY    19  18  93 S7        30.19S WCI  10
CRANE LAKE     CLOUDY    19  18  93 CALM      30.23F
ORR            CLOUDY    19  16  86 CALM      30.18S
COOK           CLOUDY    19  19 100 CALM      30.20F
WALKER         CLOUDY    17  14  88 SE5       30.19S WCI  10
$$
MNZ012-019>021-037-190400-
   Northeast Minnesota

CITY           SKY/WX    TMP DP  RH WIND       PRES   REMARKS
DULUTH         CLOUDY    24  17  74 SE6       30.21R WCI  17
ELY            CLOUDY    21  19  93 CALM      30.20F
HIBBING        CLOUDY    23  16  74 S7        30.21R WCI  15
EVELETH        CLOUDY    23  19  86 S5        30.22S WCI  17
DULUTH HARBOR  CLOUDY    27  21  80 CALM      30.27S
TWO HARBORS    CLOUDY    27  21  80 SE5       30.22S WCI  21
SILVER BAY     CLOUDY    27  21  80 SE6       30.23R WCI  20
GRAND MARAIS     N/A     18  12  77 N8        30.29F WCI   8
G MARAIS ARPRT MOCLDY     3   0  85 N5        30.22S WCI  -6
$$
MNZ029>031-032-039>041-046>048-054>057-064-190400-
   West Central Minnesota

CITY           SKY/WX    TMP DP  RH WIND       PRES   REMARKS
FERGUS FALLS   CLOUDY    19  14  79 S12       30.21S WCI   7
WHEATON        CLOUDY    18  16  93 SE8       30.20S WCI   7
MORRIS         CLEAR     19  18  93 SE9       30.18F WCI   9
ALEXANDRIA     CLOUDY    19  14  81 SE10      30.19S WCI   7
ELBOW LAKE     CLOUDY    19  15  86 SE10      30.18S WCI   7
WADENA         CLOUDY    18  14  86 NW8       30.18S WCI   7
GLENWOOD       CLOUDY    18  16  93 SE10      30.19F WCI   6
APPLETON       CLOUDY    21  19  93 SE3       30.20S
BENSON         CLOUDY    21  18  86 S7        30.21S WCI  13
ORTONVILLE     CLOUDY    21  18  86 SE10      30.18S WCI  10
MADISON        CLEAR     27  23  86 SE6       30.20F WCI  20
WILLMAR        CLOUDY    21  18  86 SE9       30.23S WCI  11
$$
MNZ033>034-036-042>043-049>051-058-059-190400-
   Central Minnesota

CITY           SKY/WX    TMP DP  RH WIND       PRES   REMARKS
ST CLOUD       CLOUDY    21  14  74 S6        30.23F WCI  13
SAUK CENTRE    CLOUDY    19  15  85 SE9       30.21S WCI   7
PAYNESVILLE    CLOUDY    17  14  90 E5        30.22F WCI  10
AITKIN         CLOUDY    21  18  86 SE6       30.21R WCI  14
PINE RIVER     CLOUDY    18  16  93 S6        30.23S WCI   9
BRAINERD       CLOUDY    19  15  84 S6        30.22S WCI  11
STAPLES        CLOUDY    18  14  86 SE5       30.19F WCI  11
LONG PRAIRIE     N/A     19  14  79 SE8       30.20S WCI   9
LITTLE FALLS   CLOUDY    19  14  79 SE5       30.23S WCI  13
LITCHFIELD     CLOUDY    19  18  93 SE7       30.23F WCI  10
BUFFALO        CLOUDY    21  15  80 SE3       30.26F
MAPLE LAKE     CLOUDY    21  18  87 SE3       30.25S
$$
MNZ037-044-045-052-053-190400-
   East Central Minnesota

CITY           SKY/WX    TMP DP  RH WIND       PRES   REMARKS
PRINCETON      CLOUDY    21  18  86 CALM      30.24F
MORA           CLOUDY    19  16  86 CALM      30.26S
CAMBRIDGE      CLOUDY    23  16  74 S3        30.24S
RUSH CITY      CLOUDY    22  19  87 CALM      30.26S
MOOSE LAKE     CLOUDY    21  19  93 S3        30.22S
HINCKLEY       CLOUDY    23  19  86 CALM      30.25S
CLOQUET        CLOUDY    21  18  86 S3        30.22S
MCGREGOR       CLOUDY    21  19  93 SE5       30.22S WCI  15
$$
MNZ071>073-080-081-089-090-097-098-190400-
   Southwest Minnesota

CITY           SKY/WX    TMP DP  RH WIND       PRES   REMARKS
MONTEVIDEO     CLOUDY    21  19  93 S7        30.22S WCI  13
GRANITE FALLS  CLOUDY    22  19  88 SE7       30.23S WCI  13
CANBY          CLOUDY    24  22  95 SE7       30.19F WCI  15
MARSHALL       CLOUDY    25  19  80 SE5       30.19S WCI  19
REDWOOD FALLS  CLOUDY    23  18  81 SE8       30.23S WCI  14
OLIVIA         CLOUDY    23  19  86 SE8       30.22S WCI  14
PIPESTONE      MOCLDY    25  23  93 CALM      30.15F
WINDOM         CLOUDY    25  21  86 CALM      30.20S
WORTHINGTON    CLOUDY    25  21  86 S7        30.18F WCI  17
JACKSON        CLOUDY    27  21  80 SE6       30.20F WCI  20
TRACY          CLOUDY    26  23  91 CALM      30.20R
SLAYTON        CLOUDY    25  24  96 CALM      30.17F
$$
MNZ065>067-074>077-082>085-091>093-190400-
   South Central Minnesota

CITY           SKY/WX    TMP DP  RH WIND       PRES   REMARKS
MANKATO        CLOUDY    21  16  79 SE6       30.24S WCI  14
NEW ULM        CLOUDY    21  19  93 SE6       30.23F WCI  14
ST JAMES       CLOUDY    25  21  86 SE6       30.24F WCI  18
FAIRMONT       CLOUDY    25  18  74 SE6       30.22F WCI  18
GLENCOE        CLOUDY    21  18  88 SE6       30.24F WCI  13
FARIBAULT      CLOUDY    19  16  86 CALM      30.25F
OWATONNA       CLOUDY    21  16  79 SE5       30.24S WCI  15
WASECA         CLOUDY    23  18  80 SE6       30.25F WCI  16
ALBERT LEA     CLOUDY    21  19  93 E3        30.23S
$$
MNZ078>079-086>088-094>096-190400-
   Southeast Minnesota

CITY           SKY/WX    TMP DP  RH WIND       PRES   REMARKS
ROCHESTER      CLOUDY    20  15  81 CALM      30.24S
RED WING       CLOUDY    23  18  80 CALM      30.27S
STANTON        CLOUDY    22  16  78 S3        30.25F
DODGE CENTER   CLOUDY    19  18  93 SE5       30.23S WCI  13
WINONA         CLOUDY    27  19  74 CALM      30.29S
AUSTIN         CLOUDY    21  18  86 E3        30.23F
PRESTON        CLOUDY    21  16  81 CALM      30.24F
$$
ABBREVIATIONS USED IN REMARKS
   TC - TEMPERATURES IN CELSIUS
  WCI - WIND CHILL INDEX
   HX - HEAT INDEX
  VSB - VISIBILITY
$$


USA.gov is the U.S. government's official web portal to all federal, state and local government web resources and services.